Weather History for Rawlins, WY

Change the Weather History Date:

Sunday, January 29, 2012

  Actual Average Record
Temperature  
Mean Temperature 30 °F 21 °F  
Max Temperature 38 °F 31 °F 48 °F (1986)
Min Temperature 22 °F 12 °F -18 °F (1957)
Degree Days  
Heating Degree Days 35 44  
Month to date heating degree days 1098 1254  
Since 1 July heating degree days 4365 4708  
Cooling Degree Days 0 0  
Month to date cooling degree days 0 0  
Year to date cooling degree days 0 0  
Moisture  
Dew Point 9 °F    
Average Humidity 41    
Maximum Humidity 49    
Minimum Humidity 33    
Precipitation  
Precipitation 0.00 in 0.01 in 0.71 in (1980)
Month to date precipitation 0.07 0.34  
Year to date precipitation 0.07 0.34  
Sea Level Pressure  
Sea Level Pressure 30.26 in    
Wind  
Wind Speed 22 mph (WSW)    
Max Wind Speed 36 mph    
Max Gust Speed 44 mph    
Visibility 10 miles    
Events      
T = Trace of Precipitation, MM = Missing Value Source: NWS Daily Summary

Daily Weather History Graph

Daily Weather History Graph

Search for Another Location

Airport:

Trip Planner

Search our weather history database for the weather conditions in past years. The results will help you decide how hot, cold, wet, or windy it might be!

Date:

Astronomy

Jan. 29, 2012 Rise Set
Actual Time 7:24 AM MST 5:19 PM MST
Civil Twilight 6:54 AM MST 5:49 PM MST
Nautical Twilight 6:21 AM MST 6:23 PM MST
Astronomical Twilight 5:48 AM MST 6:55 PM MST
Moon 10:10 AM MST (1/29) No Moon Set
Length of Visible Light 10h 54m
Length of Day
9h 55m
Waxing Crescent, 37% of the Moon is Illuminated
Jan 29
Waxing Crescent
Jan 30
First Quarter
Feb 7
Full
Feb 14
Last Quarter
Feb 21
New

Hourly Weather History & Observations

Time (MST) Temp. Windchill Dew Point Humidity Pressure Visibility Wind Dir Wind Speed Gust Speed Precip Events Conditions
12:53 AM 23.0 °F 6.9 °F -0.0 °F 37% 30.36 in 10.0 mi WSW 24.2 mph 36.8 mph N/A   Overcast
1:53 AM 23.0 °F 5.1 °F -0.0 °F 37% 30.36 in 10.0 mi WSW 31.1 mph 39.1 mph N/A   Mostly Cloudy
2:53 AM 21.9 °F 4.2 °F -0.9 °F 37% 30.37 in 10.0 mi WSW 28.8 mph 43.7 mph N/A   Scattered Clouds
3:53 AM 21.9 °F 5.5 °F -0.0 °F 38% 30.36 in 10.0 mi WSW 24.2 mph 33.4 mph N/A   Scattered Clouds
4:53 AM 21.9 °F 6.9 °F -0.0 °F 38% 30.40 in 10.0 mi WSW 19.6 mph 31.1 mph N/A   Partly Cloudy
5:53 AM 23.0 °F 6.0 °F 1.0 °F 39% 30.39 in 10.0 mi WSW 27.6 mph 33.4 mph N/A   Clear
6:53 AM 25.0 °F 9.9 °F 3.0 °F 39% 30.38 in 10.0 mi West 23.0 mph 32.2 mph N/A   Clear
7:53 AM 25.0 °F 9.2 °F 3.9 °F 41% 30.36 in 10.0 mi WSW 25.3 mph 38.0 mph N/A   Clear
8:53 AM 28.0 °F 13.6 °F 6.1 °F 39% 30.35 in 10.0 mi West 24.2 mph 33.4 mph N/A   Clear
10:53 AM 34.0 °F 20.8 °F 10.0 °F 37% 30.31 in 10.0 mi WSW 27.6 mph 40.3 mph N/A   Clear
11:53 AM 37.9 °F 27.1 °F 12.9 °F 36% 30.26 in 10.0 mi WSW 23.0 mph 39.1 mph N/A   Partly Cloudy
12:53 PM 37.0 °F 26.2 °F 12.9 °F 37% 30.25 in 10.0 mi WSW 21.9 mph 32.2 mph N/A   Clear
1:53 PM 37.9 °F 25.9 °F 15.1 °F 39% 30.21 in 10.0 mi WSW 28.8 mph 38.0 mph N/A   Clear
2:53 PM 37.0 °F 26.7 °F 15.1 °F 41% 30.22 in 10.0 mi SW 19.6 mph 28.8 mph N/A   Clear
3:53 PM 37.0 °F 25.9 °F 14.0 °F 39% 30.21 in 10.0 mi WSW 23.0 mph 29.9 mph N/A   Clear
4:53 PM 34.0 °F 22.7 °F 14.0 °F 44% 30.23 in 10.0 mi WSW 19.6 mph 27.6 mph N/A   Clear
5:53 PM 33.1 °F 23.9 °F 12.9 °F 43% 30.19 in 10.0 mi WSW 12.7 mph 24.2 mph N/A   Clear
6:53 PM 35.1 °F 24.5 °F 12.9 °F 40% 30.16 in 10.0 mi WSW 18.4 mph 27.6 mph N/A   Clear
7:53 PM 33.1 °F 22.2 °F 12.9 °F 43% 30.19 in 10.0 mi WSW 17.3 mph 25.3 mph N/A   Clear
8:53 PM 34.0 °F 23.4 °F 15.1 °F 46% 30.14 in 10.0 mi WSW 17.3 mph - N/A   Clear
9:53 PM 33.1 °F 23.9 °F 15.1 °F 48% 30.12 in 10.0 mi WSW 12.7 mph - N/A   Clear
10:53 PM 30.9 °F 21.7 °F 14.0 °F 50% 30.06 in 10.0 mi WSW 11.5 mph - N/A   Clear
11:53 PM 30.0 °F 20.5 °F 12.9 °F 49% 30.08 in 10.0 mi WSW 11.5 mph - N/A   Clear